Time,TemperatureF,DewpointF,PressureIn,WindDirection,WindDirectionDegrees,WindSpeedMPH,WindSpeedGustMPH,Humidity,HourlyPrecipIn,Conditions,Clouds,dailyrainin,SolarRadiationWatts/m^2,SoftwareType,DateUTC
2013-04-19 00:01:00,23.0,-10.0,-100.00,NNW,344,6.0,9.0,22,0.00,,,0.00,0.000000,,2013-04-19 06:01:00,
2013-04-19 00:11:00,23.0,-10.0,-100.00,NNW,344,6.0,9.0,22,0.00,,,0.00,0.000000,,2013-04-19 06:11:00,
2013-04-19 00:12:00,22.0,-12.0,-100.00,NNE,23,4.0,9.0,21,0.00,,,-99.99,0.000000,,2013-04-19 06:12:00,
2013-04-19 00:32:00,22.0,-12.0,-100.00,NNE,23,4.0,9.0,21,0.00,,,-99.99,0.000000,,2013-04-19 06:32:00,
2013-04-19 00:42:00,22.0,-12.0,-100.00,NNE,23,4.0,9.0,21,0.00,,,-99.99,0.000000,,2013-04-19 06:42:00,
2013-04-19 00:53:00,22.0,-12.0,-100.00,NNE,23,4.0,9.0,21,0.00,,,-99.99,0.000000,,2013-04-19 06:53:00,
2013-04-19 01:01:00,22.0,-12.0,-100.00,NNE,23,4.0,9.0,21,0.00,,,-99.99,0.000000,,2013-04-19 07:01:00,
2013-04-19 02:42:00,21.0,-13.0,-100.00,North,357,7.0,11.0,21,-99.99,,,0.00,0.000000,,2013-04-19 08:42:00,
2013-04-19 02:52:00,21.0,-13.0,-100.00,North,357,7.0,11.0,21,-99.99,,,0.00,0.000000,,2013-04-19 08:52:00,
2013-04-19 03:01:00,21.0,-13.0,-100.00,North,357,7.0,11.0,21,-99.99,,,0.00,0.000000,,2013-04-19 09:01:00,
2013-04-19 03:11:00,21.0,-13.0,-100.00,North,357,7.0,11.0,21,-99.99,,,0.00,0.000000,,2013-04-19 09:11:00,
2013-04-19 03:12:00,21.0,-13.0,-100.00,NNW,345,8.0,11.0,21,0.00,,,0.00,0.000000,,2013-04-19 09:12:00,
2013-04-19 03:33:00,21.0,-13.0,-100.00,NNW,345,8.0,11.0,21,0.00,,,0.00,0.000000,,2013-04-19 09:33:00,
2013-04-19 03:43:00,21.0,-13.0,-100.00,NNW,345,8.0,11.0,21,0.00,,,0.00,0.000000,,2013-04-19 09:43:00,
2013-04-19 03:52:00,21.0,-13.0,-100.00,NNW,345,8.0,11.0,21,0.00,,,0.00,0.000000,,2013-04-19 09:52:00,
2013-04-19 04:02:00,21.0,-13.0,-100.00,NNW,345,8.0,11.0,21,0.00,,,0.00,0.000000,,2013-04-19 10:02:00,
2013-04-19 04:33:00,21.0,-13.0,-100.00,NNW,343,7.0,9.0,21,0.00,,,0.00,0.000000,,2013-04-19 10:33:00,
2013-04-19 04:42:00,21.0,-13.0,-100.00,NNW,343,7.0,9.0,21,0.00,,,0.00,0.000000,,2013-04-19 10:42:00,
2013-04-19 04:52:00,21.0,-13.0,-100.00,NNW,343,7.0,9.0,21,0.00,,,0.00,0.000000,,2013-04-19 10:52:00,
2013-04-19 05:02:00,21.0,-13.0,-100.00,NNW,343,7.0,9.0,21,0.00,,,0.00,0.000000,,2013-04-19 11:02:00,
2013-04-19 05:11:00,21.0,-13.0,-100.00,NNW,343,7.0,9.0,21,0.00,,,0.00,0.000000,,2013-04-19 11:11:00,
2013-04-19 05:12:00,20.0,-10.0,-100.00,NW,319,6.0,9.0,25,0.00,,,0.00,0.000000,,2013-04-19 11:12:00,
2013-04-19 05:32:00,20.0,-10.0,-100.00,NW,319,6.0,9.0,25,0.00,,,0.00,0.000000,,2013-04-19 11:32:00,
2013-04-19 05:43:00,20.0,-10.0,-100.00,NW,319,6.0,9.0,25,0.00,,,0.00,0.000000,,2013-04-19 11:43:00,
2013-04-19 05:52:00,20.0,-10.0,-100.00,NW,319,6.0,9.0,25,0.00,,,0.00,0.000000,,2013-04-19 11:52:00,
2013-04-19 06:02:00,20.0,-10.0,-100.00,NW,319,6.0,9.0,25,0.00,,,0.00,0.000000,,2013-04-19 12:02:00,
2013-04-19 06:42:00,21.0,-13.0,-100.00,NW,314,4.0,8.0,21,0.00,,,0.00,0.000000,,2013-04-19 12:42:00,
2013-04-19 06:52:00,21.0,-13.0,-100.00,NW,314,4.0,8.0,21,0.00,,,0.00,0.000000,,2013-04-19 12:52:00,
2013-04-19 07:01:00,21.0,-13.0,-100.00,NW,314,4.0,8.0,21,0.00,,,0.00,0.000000,,2013-04-19 13:01:00,
2013-04-19 07:11:00,21.0,-13.0,-100.00,NW,314,4.0,8.0,21,0.00,,,0.00,0.000000,,2013-04-19 13:11:00,
2013-04-19 07:42:00,22.0,-12.0,-100.00,NW,311,4.0,6.0,21,0.00,,,-99.99,23.000000,,2013-04-19 13:42:00,
2013-04-19 07:52:00,22.0,-12.0,-100.00,NW,311,4.0,6.0,21,0.00,,,-99.99,23.000000,,2013-04-19 13:52:00,
2013-04-19 08:01:00,22.0,-12.0,-100.00,NW,311,4.0,6.0,21,0.00,,,-99.99,23.000000,,2013-04-19 14:01:00,
2013-04-19 08:32:00,28.0,-9.0,-100.00,SW,217,2.0,4.0,19,0.00,,,0.00,200.000000,,2013-04-19 14:32:00,
2013-04-19 09:12:00,30.0,-4.0,-100.00,South,182,6.0,9.0,22,0.00,,,0.00,409.000000,,2013-04-19 15:12:00,
2013-04-19 09:43:00,30.0,-4.0,-100.00,South,182,6.0,9.0,22,0.00,,,0.00,409.000000,,2013-04-19 15:43:00,
2013-04-19 09:52:00,30.0,-4.0,-100.00,South,182,6.0,9.0,22,0.00,,,0.00,409.000000,,2013-04-19 15:52:00,
2013-04-19 10:03:00,30.0,-4.0,-100.00,South,182,6.0,9.0,22,0.00,,,0.00,409.000000,,2013-04-19 16:03:00,
2013-04-19 10:42:00,33.0,-4.0,-100.00,SSE,163,6.0,11.0,20,0.00,,,0.00,608.000000,,2013-04-19 16:42:00,
2013-04-19 10:52:00,33.0,-4.0,-100.00,SSE,163,6.0,11.0,20,0.00,,,0.00,608.000000,,2013-04-19 16:52:00,
2013-04-19 11:02:00,33.0,-4.0,-100.00,SSE,163,6.0,11.0,20,0.00,,,0.00,608.000000,,2013-04-19 17:02:00,
2013-04-19 11:11:00,33.0,-4.0,-100.00,SSE,163,6.0,11.0,20,0.00,,,0.00,608.000000,,2013-04-19 17:11:00,
2013-04-19 11:12:00,36.0,-3.0,-100.00,SSW,199,6.0,12.0,18,0.00,,,0.00,767.000000,,2013-04-19 17:12:00,
2013-04-19 11:43:00,36.0,-3.0,-100.00,SSW,199,6.0,12.0,18,0.00,,,0.00,767.000000,,2013-04-19 17:43:00,
2013-04-19 11:52:00,36.0,-3.0,-100.00,SSW,199,6.0,12.0,18,0.00,,,0.00,767.000000,,2013-04-19 17:52:00,
2013-04-19 12:01:00,36.0,-3.0,-100.00,SSW,199,6.0,12.0,18,0.00,,,0.00,767.000000,,2013-04-19 18:01:00,
2013-04-19 12:43:00,40.0,0.0,-100.00,South,186,7.0,14.0,18,0.00,,,0.00,879.000000,,2013-04-19 18:43:00,
2013-04-19 12:52:00,40.0,0.0,-100.00,South,186,7.0,14.0,18,0.00,,,0.00,879.000000,,2013-04-19 18:52:00,
2013-04-19 13:01:00,40.0,0.0,-100.00,South,186,7.0,14.0,18,0.00,,,0.00,879.000000,,2013-04-19 19:01:00,
2013-04-19 13:11:00,40.0,0.0,-100.00,South,186,7.0,14.0,18,0.00,,,0.00,879.000000,,2013-04-19 19:11:00,
2013-04-19 13:32:00,42.0,2.0,-100.00,West,266,6.0,12.0,18,0.00,,,0.00,909.000000,,2013-04-19 19:32:00,
2013-04-19 13:42:00,42.0,2.0,-100.00,West,266,6.0,12.0,18,0.00,,,0.00,909.000000,,2013-04-19 19:42:00,
2013-04-19 13:52:00,42.0,2.0,-100.00,West,266,6.0,12.0,18,0.00,,,0.00,909.000000,,2013-04-19 19:52:00,
2013-04-19 14:01:00,42.0,2.0,-100.00,West,266,6.0,12.0,18,0.00,,,0.00,909.000000,,2013-04-19 20:01:00,
2013-04-19 14:11:00,42.0,2.0,-100.00,West,266,6.0,12.0,18,0.00,,,0.00,909.000000,,2013-04-19 20:11:00,
2013-04-19 14:42:00,44.0,3.0,-100.00,WSW,246,6.0,14.0,18,0.00,,,0.00,926.000000,,2013-04-19 20:42:00,
2013-04-19 14:52:00,44.0,3.0,-100.00,WSW,246,6.0,14.0,18,0.00,,,0.00,926.000000,,2013-04-19 20:52:00,
2013-04-19 15:01:00,44.0,3.0,-100.00,WSW,246,6.0,14.0,18,0.00,,,0.00,926.000000,,2013-04-19 21:01:00,
2013-04-19 15:11:00,44.0,3.0,-100.00,WSW,246,6.0,14.0,18,0.00,,,0.00,926.000000,,2013-04-19 21:11:00,
2013-04-19 16:33:00,45.0,6.0,-100.00,SSW,200,10.0,18.0,20,-99.99,,,0.00,572.000000,,2013-04-19 22:33:00,
2013-04-19 16:42:00,45.0,6.0,-100.00,SSW,200,10.0,18.0,20,-99.99,,,0.00,572.000000,,2013-04-19 22:42:00,
2013-04-19 16:52:00,45.0,6.0,-100.00,SSW,200,10.0,18.0,20,-99.99,,,0.00,572.000000,,2013-04-19 22:52:00,
2013-04-19 17:02:00,45.0,6.0,-100.00,SSW,200,10.0,18.0,20,-99.99,,,0.00,572.000000,,2013-04-19 23:02:00,
2013-04-19 17:11:00,45.0,6.0,-100.00,SSW,200,10.0,18.0,20,-99.99,,,0.00,572.000000,,2013-04-19 23:11:00,
2013-04-19 17:42:00,44.0,6.0,-100.00,SSW,203,8.0,18.0,20,0.00,,,0.00,392.000000,,2013-04-19 23:42:00,
2013-04-19 17:52:00,44.0,6.0,-100.00,SSW,203,8.0,18.0,20,0.00,,,0.00,392.000000,,2013-04-19 23:52:00,
2013-04-19 18:01:00,44.0,6.0,-100.00,SSW,203,8.0,18.0,20,0.00,,,0.00,392.000000,,2013-04-20 00:01:00,
2013-04-19 18:11:00,44.0,6.0,-100.00,SSW,203,8.0,18.0,20,0.00,,,0.00,392.000000,,2013-04-20 00:11:00,
2013-04-19 19:32:00,40.0,5.0,-100.00,WSW,254,9.0,17.0,23,-99.99,,,0.00,56.000000,,2013-04-20 01:32:00,
2013-04-19 19:42:00,40.0,5.0,-100.00,WSW,254,9.0,17.0,23,-99.99,,,0.00,56.000000,,2013-04-20 01:42:00,
2013-04-19 19:52:00,40.0,5.0,-100.00,WSW,254,9.0,17.0,23,-99.99,,,0.00,56.000000,,2013-04-20 01:52:00,
2013-04-19 20:01:00,40.0,5.0,-100.00,WSW,254,9.0,17.0,23,-99.99,,,0.00,56.000000,,2013-04-20 02:01:00,
2013-04-19 20:11:00,40.0,5.0,-100.00,WSW,254,9.0,17.0,23,-99.99,,,0.00,56.000000,,2013-04-20 02:11:00,
2013-04-19 20:32:00,38.0,6.0,-100.00,WSW,256,9.0,16.0,26,0.00,,,0.00,16.000000,,2013-04-20 02:32:00,
2013-04-19 20:42:00,38.0,6.0,-100.00,WSW,256,9.0,16.0,26,0.00,,,0.00,16.000000,,2013-04-20 02:42:00,
2013-04-19 20:52:00,38.0,6.0,-100.00,WSW,256,9.0,16.0,26,0.00,,,0.00,16.000000,,2013-04-20 02:52:00,
2013-04-19 21:01:00,38.0,6.0,-100.00,WSW,256,9.0,16.0,26,0.00,,,0.00,16.000000,,2013-04-20 03:01:00,
2013-04-19 21:11:00,38.0,6.0,-100.00,WSW,256,9.0,16.0,26,0.00,,,0.00,16.000000,,2013-04-20 03:11:00,
2013-04-19 21:12:00,37.0,7.0,-100.00,West,259,7.0,17.0,28,0.00,,,0.00,0.000000,,2013-04-20 03:12:00,
2013-04-19 21:43:00,37.0,7.0,-100.00,West,259,7.0,17.0,28,0.00,,,0.00,0.000000,,2013-04-20 03:43:00,
2013-04-19 21:53:00,37.0,7.0,-100.00,West,259,7.0,17.0,28,0.00,,,0.00,0.000000,,2013-04-20 03:53:00,
2013-04-19 22:03:00,37.0,7.0,-100.00,West,259,7.0,17.0,28,0.00,,,0.00,0.000000,,2013-04-20 04:03:00,
2013-04-19 22:12:00,36.0,7.0,-100.00,West,268,6.0,11.0,29,0.00,,,0.00,0.000000,,2013-04-20 04:12:00,
2013-04-19 22:43:00,36.0,7.0,-100.00,West,268,6.0,11.0,29,0.00,,,0.00,0.000000,,2013-04-20 04:43:00,
2013-04-19 22:52:00,36.0,7.0,-100.00,West,268,6.0,11.0,29,0.00,,,0.00,0.000000,,2013-04-20 04:52:00,
2013-04-19 23:02:00,36.0,7.0,-100.00,West,268,6.0,11.0,29,0.00,,,0.00,0.000000,,2013-04-20 05:02:00,
2013-04-19 23:12:00,35.0,7.0,-100.00,SSW,212,4.0,10.0,31,0.00,,,0.00,0.000000,,2013-04-20 05:12:00,
2013-04-19 23:32:00,35.0,7.0,-100.00,SSW,212,4.0,10.0,31,0.00,,,0.00,0.000000,,2013-04-20 05:32:00,
2013-04-19 23:43:00,35.0,7.0,-100.00,SSW,212,4.0,10.0,31,0.00,,,0.00,0.000000,,2013-04-20 05:43:00,
2013-04-19 23:52:00,35.0,7.0,-100.00,SSW,212,4.0,10.0,31,0.00,,,0.00,0.000000,,2013-04-20 05:52:00,